This demonstration page uses our WeatherBlox Daily Observations layout. Learn more.

Left ArrowRight Arrow

38.20091, -84.87328

Hourly Observations for August 22, 2016

Temp ( °F °C ) Dew Point ( °F °C ) Humidity (%) Winds ( mph kmh ) Pressure ( in mb ) Visibility ( mi km ) Precip ( " mm )
12:53 am 00:53 Clear 62 16.7 59 15 90 90 Calm 30.08 1019 10 16 0.00 0.00
1:53 am 01:53 Mostly Cloudy 63 17.2 59 15 87 87 NNW 3 6 30.08 1019 10 16 0.00 0.00
2:53 am 02:53 Clear 62 16.7 58 14.4 86 86 Calm 30.08 1019 10 16 0.00 0.00
3:53 am 03:53 Clear 61 16.1 57 13.9 87 87 Calm 30.09 1019 10 16 0.00 0.00
4:53 am 04:53 Clear 60 15.6 57 13.9 90 90 NNW 3 6 30.10 1019 10 16 0.00 0.00
5:53 am 05:53 Clear 59 15 56 13.3 90 90 Calm 30.11 1020 10 16 0.00 0.00
6:53 am 06:53 Clear 58 14.4 55 12.8 90 90 Calm 30.13 1020 10 16 0.00 0.00
7:53 am 07:53 Sunny 60 15.6 56 13.3 86 86 Calm 30.16 1021 10 16 0.00 0.00
8:53 am 08:53 Sunny 65 18.3 60 15.6 84 84 Calm 30.18 1022 10 16 0.00 0.00
9:53 am 09:53 Sunny 70 21.1 59 15 68 68 E 3 6 30.19 1022 10 16 0.00 0.00
10:53 am 10:53 Sunny 74 23.3 58 14.4 57 57 VRB 3 6 30.21 1023 10 16 0.00 0.00
11:53 am 11:53 Sunny 76 24.4 57 13.9 52 52 ENE 6 9 30.21 1023 10 16 0.00 0.00
12:53 pm 12:53 Mostly Sunny 77 25 53 11.7 43 43 Calm 30.21 1023 10 16 0.00 0.00
1:53 pm 13:53 Sunny 79 26.1 53 11.7 41 41 VRB 3 6 30.20 1023 10 16 0.00 0.00
2:53 pm 14:53 Mostly Cloudy 79 26.1 54 12.2 42 42 Calm 30.19 1023 10 16 0.00 0.00
3:53 pm 15:53 Mostly Cloudy 82 27.8 56 13.3 41 41 VRB 6 9 30.18 1022 10 16 0.00 0.00
4:53 pm 16:53 Sunny 79 26.1 55 12.8 44 44 S 5 7 30.17 1022 10 16 0.00 0.00
5:53 pm 17:53 Sunny 80 26.7 53 11.7 39 39 WNW 5 7 30.16 1022 10 16 0.00 0.00
6:53 pm 18:53 Cloudy 78 25.6 54 12.2 43 43 Calm 30.16 1021 10 16 0.00 0.00
7:53 pm 19:53 Sunny 75 23.9 62 16.7 64 64 Calm 30.16 1022 10 16 0.00 0.00
8:53 pm 20:53 Clear 67 19.4 61 16.1 81 81 Calm 30.18 1022 10 16 0.00 0.00
9:53 pm 21:53 Clear 65 18.3 59 15 81 81 Calm 30.20 1023 10 16 0.00 0.00
10:53 pm 22:53 Clear 62 16.7 58 14.4 86 86 Calm 30.21 1023 10 16 0.00 0.00
11:53 pm 23:53 Clear 63 17.2 59 15 87 87 Calm 30.21 1023 9 14 0.00 0.00

Powered by AerisWeather